Location: Caltech
(34.1382°N, 118.1253°W)
Time: 14:48:28
(UTC-07:00)

Gbstr 26 Del rocket - Visible Passes

Search period start: 26 July 2016 00:00
Search period end: 05 August 2016 00:00
Orbit: 494 x 1267 km, 51.8° (Epoch: 26 July)

Date Brightness Start Highest point End Pass type
(mag) Time Alt. Az. Time Alt. Az. Time Alt. Az.
26 Jul 6.3 21:19:30 10° NNW 21:20:20 10° N 21:21:10 10° N visible
26 Jul 5.4 23:06:17 10° NNW 23:09:19 17° NNE 23:09:37 17° NNE visible
27 Jul 6.1 21:15:24 10° NNW 21:16:34 11° N 21:17:41 10° NNE visible
27 Jul 5.2 23:01:57 10° NNW 23:05:19 20° NNE 23:05:19 20° NNE visible
28 Jul 6.0 21:11:10 10° NNW 21:12:48 11° N 21:14:20 10° NNE visible
28 Jul 5.0 22:57:39 10° NNW 23:01:03 24° NNE 23:01:03 24° NNE visible
29 Jul 5.8 21:06:55 10° NNW 21:09:01 12° N 21:10:58 10° NNE visible
29 Jul 4.7 22:53:23 10° NNW 22:56:48 28° N 22:56:48 28° N visible
30 Jul 5.7 21:02:38 10° NNW 21:05:14 13° N 21:07:36 10° NE visible
30 Jul 4.5 22:49:09 10° NW 22:52:37 34° N 22:52:37 34° N visible
31 Jul 5.6 20:58:21 10° NNW 21:01:25 15° NNE 21:04:12 10° NE visible
31 Jul 4.3 22:44:56 10° NW 22:48:27 39° N 22:48:27 39° N visible
01 Aug 5.4 20:54:04 10° NNW 20:57:37 17° NNE 21:00:44 10° ENE visible
01 Aug 4.1 22:40:46 10° NW 22:44:19 44° NNW 22:44:19 44° NNW visible
02 Aug 5.3 20:49:47 10° NNW 20:53:46 20° NNE 20:57:13 10° ENE visible
02 Aug 4.0 22:36:38 10° NW 22:40:13 46° NW 22:40:13 46° NW visible
03 Aug 5.0 20:45:31 10° NNW 20:49:53 24° NNE 20:53:37 10° E visible
03 Aug 4.0 22:32:34 10° NW 22:36:11 44° WNW 22:36:11 44° WNW visible
04 Aug 4.7 20:41:16 10° NNW 20:45:59 29° NNE 20:49:36 12° E visible
04 Aug 4.2 22:28:33 10° WNW 22:32:11 38° W 22:32:11 38° W visible
